Tracking 22882 objects as of 18-Apr-2021
HD Live streaming from Space Station
objects crossing your sky now

COSMOS 1363

Track COSMOS 1363 now!
10-day predictions
COSMOS 1363 is classified as:


NORAD ID: 13166
Int'l Code: 1982-040G
Perigee: 1,480.9 km
Apogee: 1,511.7 km
Inclination: 74.0 °
Period: 115.7 minutes
Semi major axis: 7867 km
RCS: 0.7318 m2 (medium)
Launch date: May 6, 1982
Source: Commonwealth of Independent States (former USSR) (CIS)
Launch site: PLESETSK MISSILE AND SPACE COMPLEX (PKMTR)
aabbcc
Your satellite tracking list
Your tracking list is empty




NASA's NSSDC Master Catalog

Two Line Element Set (TLE):
1 13166U 82040G   21108.50626270 -.00000022  00000-0 -41213-4 0  9992
2 13166  74.0094 147.3882 0019524 351.1698 162.5729 12.44126011769028
Source of the keplerian elements: AFSPC